Wetbulb
61.43 59.51 60.70 59.55 51.10 50.64 47.47 47.97 52.13 51.13 52.35 54.96 57.60 57.43 56.97 58.64 55.63 52.56 66.78 68.02 69.32 70.04 71.00 71.37 71.08 70.97 70.09 70.30 70.37 70.38 70.26 70.37 69.53 69.24 69.28 68.99 69.82 70.69 70.57 70.92 70.57 70.02 69.04 69.20 68.68 68.19 67.44 66.39 65.74
58.79 58.00 60.19 57.34 48.80 45.48 47.87 50.52 49.93 52.76 56.24 58.19 58.44 58.48 57.81 57.07 60.66 62.26 64.96 67.92 69.40 69.95 71.18 71.10 69.99 70.74 70.20 70.42 70.65 70.40 70.05 69.95 68.95 68.39 68.70 68.88 70.13 70.59 70.01 69.86 69.79 68.90 68.42 68.50 68.15 67.81 66.78 65.95 65.40
58.29 56.21 55.48 52.65 49.12 46.31 46.91 50.08 52.93 55.57 56.06 56.36 56.61 59.55 58.86 58.23 61.21 63.34 67.36 68.82 69.84 70.08 70.81 70.66 70.12 70.75 70.16 70.43 70.39 70.62 70.03 69.44 68.71 68.24 68.39 67.88 69.29 69.44 69.84 69.29 68.77 68.34 67.68 67.62 67.54 67.31 66.62 65.86 65.18
57.15 57.02 53.78 48.52 45.44 47.49 47.88 51.16 53.82 55.06 53.99 56.12 57.82 56.12 60.94 63.69 62.53 65.62 68.05 69.30 69.25 69.21 70.01 69.92 70.61 70.84 70.36 70.63 70.83 70.77 70.19 68.87 69.11 68.24 68.24 67.98 68.27 68.36 69.52 68.29 67.76 67.54 67.10 66.96 67.02 66.95 66.31 65.50 64.89
57.42 55.17 48.85 46.60 45.68 47.62 48.82 50.81 54.89 53.98 53.68 56.07 57.37 55.56 57.99 63.24 66.31 66.59 67.67 67.96 67.82 68.83 69.63 70.63 70.15 70.36 70.45 70.67 70.90 70.55 69.70 69.15 68.91 68.62 67.70 67.50 68.17 68.28 68.24 67.57 67.08 66.85 66.38 66.22 65.92 65.61 65.34 65.07 64.61
53.51 53.39 46.35 44.52 45.85 47.54 50.82 52.72 55.51 52.94 54.21 55.86 55.87 57.15 58.97 64.97 64.53 66.10 67.80 68.12 68.99 68.62 69.32 70.30 67.44 68.57 69.28 69.93 70.11 69.70 68.86 68.63 68.81 68.08 68.43 68.59 68.05 67.43 67.08 67.00 66.46 66.03 65.64 65.37 65.17 64.95 64.69 64.36 64.16
51.84 50.38 46.76 46.26 46.45 46.94 50.41 53.94 54.07 53.43 53.80 54.55 58.94 55.09 59.01 61.91 65.20 66.67 67.18 68.26 68.49 68.52 68.82 70.19 69.73 68.06 66.50 67.39 67.89 68.58 68.65 68.27 68.13 68.34 67.79 68.22 68.10 68.00 67.23 67.00 66.27 65.62 65.30 65.00 64.61 64.22 64.11 63.99 63.34
53.71 51.90 46.38 46.41 45.41 45.98 51.64 51.63 52.51 54.22 53.05 58.77 60.47 54.32 56.14 61.29 65.28 66.34 66.48 66.73 66.78 67.74 68.53 69.24 69.38 68.43 68.09 68.40 64.37 65.32 66.81 67.03 67.05 66.56 65.32 64.69 65.36 65.80 65.77 65.12 66.10 65.43 64.90 64.41 64.42 63.77 63.49 63.31 62.65
51.51 48.58 45.82 46.78 45.68 47.74 51.61 50.15 50.79 54.59 55.68 57.15 58.27 57.55 61.13 64.68 64.74 64.46 63.59 63.77 64.01 65.27 68.04 69.28 68.65 67.89 67.67 67.96 65.24 63.84 63.75 63.65 63.66 63.60 62.23 63.95 66.72 66.63 65.91 63.24 64.99 65.18 64.75 64.24 63.65 62.68 61.54 60.77 60.29
50.04 48.23 46.88 48.90 48.82 48.58 50.97 51.54 50.61 52.81 53.85 54.63 56.00 59.49 63.42 63.64 63.06 61.97 61.36 61.16 61.47 62.96 66.59 68.30 66.54 67.24 66.87 66.49 67.11 66.37 65.29 65.55 66.40 66.67 66.18 66.18 66.14 65.64 64.38 60.62 60.37 60.94 61.98 62.79 62.19 61.27 60.45 61.40 62.48
49.71 48.28 48.64 47.20 49.16 48.65 49.18 49.72 52.44 51.91 51.21 54.13 54.89 57.98 61.17 61.91 62.33 61.64 61.55 61.08 61.91 62.92 65.58 67.17 66.02 67.52 66.09 65.60 66.17 65.98 64.87 64.53 65.12 65.87 65.85 65.59 64.98 64.71 64.83 63.77 63.03 63.29 59.28 62.75 62.80 63.14 62.71 62.23 62.44
47.72 47.25 47.80 47.34 47.57 48.06 47.82 49.52 49.78 52.27 52.54 54.34 57.73 60.36 60.28 60.49 60.90 60.95 60.34 62.14 62.11 62.20 65.08 66.72 66.86 66.95 65.92 65.08 64.78 65.00 64.00 63.58 63.85 64.29 64.33 63.79 62.92 62.62 62.44 62.64 63.45 64.46 64.76 63.86 64.00 63.46 62.71 62.43 62.01
48.42 46.42 47.79 47.18 48.19 47.94 47.48 48.13 49.75 50.70 52.59 54.09 58.69 60.20 59.96 60.39 61.57 61.64 62.74 61.93 61.89 60.55 63.76 65.60 66.77 66.76 65.81 64.58 64.25 63.85 63.48 63.33 63.24 64.07 64.39 64.31 63.38 62.53 63.02 63.28 63.91 64.44 64.60 64.35 63.97 63.57 62.85 62.52 61.96
50.93 48.61 48.88 48.33 47.70 47.08 46.81 47.34 47.82 50.48 54.22 55.10 58.30 59.31 60.23 60.75 61.75 61.01 61.86 61.35 60.54 61.98 61.83 64.38 65.98 66.24 65.95 64.97 64.16 63.25 63.03 63.15 63.45 64.01 64.33 63.89 64.05 63.86 63.82 63.97 64.26 64.75 64.79 64.53 63.95 63.00 62.79 62.76 62.40
49.82 46.94 49.18 49.74 48.91 45.91 47.12 46.55 46.07 50.45 54.17 54.74 57.03 59.11 60.14 60.18 61.62 60.95 62.96 61.92 60.67 61.41 63.62 62.96 63.94 64.80 64.80 65.20 64.76 64.01 63.07 63.15 63.71 64.09 64.57 63.97 63.84 63.21 63.82 64.35 64.38 64.49 64.54 63.66 63.83 63.48 63.02 62.88 62.59
47.30 47.90 43.99 48.48 48.22 49.15 48.52 43.58 49.68 50.33 53.34 53.52 56.10 58.28 59.53 59.92 61.06 62.68 63.69 63.26 61.51 61.35 61.91 64.11 63.88 63.31 63.25 65.37 65.22 64.76 64.22 63.40 63.72 64.20 64.59 64.03 63.62 63.25 63.49 63.88 64.07 64.32 63.98 63.86 63.37 62.29 62.06 62.39 62.28
44.26 41.76 43.34 45.43 49.11 50.13 46.94 45.31 49.45 48.07 51.72 52.50 55.39 57.17 58.55 59.70 60.71 62.67 63.92 63.96 63.25 61.69 61.61 61.94 63.64 64.44 65.16 65.35 65.34 65.19 64.83 64.40 64.88 65.54 65.59 64.86 63.86 62.39 62.33 62.44 63.38 63.39 63.06 62.63 61.71 61.92 60.60 61.13 61.63
40.13 40.72 42.31 43.92 46.39 46.28 47.81 46.34 46.76 50.42 48.84 50.67 53.36 56.42 57.67 58.81 59.77 62.27 63.49 64.36 64.06 63.49 62.36 62.11 62.31 62.78 63.66 64.56 64.79 64.79 64.57 64.41 64.93 65.68 64.88 63.91 62.26 61.71 61.64 61.55 61.52 61.89 59.89 59.70 59.80 59.99 61.59 60.78 61.23
47.39 45.07 44.10 46.28 45.67 46.52 46.44 46.91 47.39 50.22 48.19 48.69 51.50 53.59 56.55 57.97 60.82 62.40 63.22 63.51 64.25 64.62 63.58 62.66 61.69 62.35 62.62 62.42 62.29 62.77 62.49 63.70 64.44 65.52 65.75 64.89 63.70 62.11 61.28 61.65 61.34 60.42 59.96 60.61 60.16 60.08 60.13 60.33 60.92
44.81 44.28 44.20 43.64 43.09 45.13 46.66 45.35 49.79 51.59 51.53 49.80 49.50 51.73 54.27 56.99 58.90 60.72 62.01 63.25 63.78 64.25 63.91 63.90 62.91 62.27 62.71 62.90 63.90 64.47 64.42 64.95 65.41 65.70 64.95 63.91 63.55 62.82 61.76 61.80 61.75 61.40 61.36 60.50 60.21 59.45 59.43 59.03 59.61
43.92 43.65 43.96 42.42 42.23 42.17 37.88 40.64 45.81 49.33 52.16 52.81 48.95 49.94 53.23 55.63 57.03 58.73 60.04 61.82 63.41 63.72 63.79 64.17 64.12 63.64 63.28 63.72 64.59 64.71 65.24 65.05 64.33 64.66 63.64 64.23 63.24 62.89 62.50 62.27 62.49 62.51 62.68 62.66 61.92 60.35 59.12 57.97 58.55
38.82 43.90 43.23 39.32 39.28 36.50 41.58 34.88 45.69 47.40 48.62 50.00 47.71 47.86 50.56 53.99 56.55 58.22 59.22 60.40 61.76 63.16 64.74 64.45 64.83 64.81 64.47 64.57 64.08 63.62 63.12 62.35 63.12 64.10 64.38 64.04 63.94 63.37 63.27 63.14 63.35 63.37 62.87 62.14 60.93 60.27 59.71 58.64 56.77
40.46 43.18 42.08 39.94 37.52 36.12 36.95 33.18 42.83 47.10 44.78 47.97 50.82 49.78 49.26 51.42 54.75 56.58 57.95 59.56 61.30 62.63 63.57 64.49 64.87 64.89 65.08 64.95 64.52 64.04 63.82 64.54 64.82 64.27 63.08 63.28 64.17 65.17 64.51 63.59 63.07 62.46 61.31 60.36 59.03 57.68 57.31 57.86 56.64
42.38 39.76 39.01 37.50 36.39 30.50 37.78 36.20 40.33 44.91 44.99 47.48 50.28 48.97 48.76 49.27 50.87 54.54 57.53 58.63 59.75 61.23 62.03 62.64 63.63 64.13 64.95 64.68 64.67 64.11 63.69 64.05 64.26 63.23 61.39 61.63 62.38 61.74 62.95 60.93 60.31 59.46 57.94 57.21 55.34 54.68 55.74 55.25 54.20
41.96 39.28 31.20 29.53 29.81 32.16 34.66 37.17 40.91 47.29 49.60 48.79 49.10 49.90 49.04 49.59 49.39 49.83 52.25 54.16 56.44 58.15 59.97 61.19 62.05 62.69 64.07 64.64 64.52 64.63 64.52 64.56 64.07 63.59 62.21 60.08 58.17 57.16 58.19 57.70 55.25 54.22 52.69 51.26 50.83 51.76 50.56 50.17 47.58
38.53 39.50 33.71 27.87 29.28 33.81 32.68 32.93 40.06 45.82 48.94 50.10 46.85 47.99 49.12 49.06 49.17 49.09 49.60 50.66 53.00 54.69 56.42 58.06 60.07 61.27 63.10 63.92 64.05 64.84 64.92 64.88 64.67 64.43 64.06 62.11 60.59 58.26 56.11 53.91 51.69 49.93 48.31 47.29 48.02 47.98 45.58 45.02 44.56
36.68 35.84 38.33 32.55 25.52 30.20 35.20 37.75 41.63 42.97 43.60 41.68 45.31 48.81 47.51 46.92 46.91 46.53 47.86 48.58 48.85 49.65 52.27 56.30 57.60 59.58 61.68 62.89 63.65 63.91 64.18 64.25 64.14 64.33 64.64 62.20 59.73 53.29 51.28 49.75 47.92 46.20 44.66 44.46 45.46 43.92 41.55 41.98 41.64
40.95 41.37 33.91 35.19 29.17 27.31 35.18 33.47 36.91 41.69 43.53 43.87 42.49 43.50 46.97 49.06 46.06 45.60 46.32 46.97 47.96 49.02 49.99 52.45 56.07 58.33 60.49 62.05 62.85 62.67 62.70 62.41 62.99 63.23 61.41 58.72 54.43 50.68 47.32 45.49 44.37 42.66 42.18 42.18 42.62 41.43 40.63 39.82 39.64
36.80 35.81 36.81 36.87 35.56 31.11 29.80 36.01 42.50 41.71 43.54 43.22 43.83 43.30 43.86 45.41 46.58 46.05 45.79 46.58 47.59 48.31 49.28 50.09 51.69 54.57 58.45 60.56 61.51 61.58 61.03 60.79 60.93 59.86 58.50 56.32 49.59 48.24 44.78 42.89 41.26 40.40 40.20 40.88 40.44 39.55 38.95 38.32 37.41
40.58 37.90 37.79 34.36 30.48 32.61 32.05 34.83 40.28 39.89 39.57 40.25 42.23 43.01 43.94 44.05 45.46 45.59 46.47 47.18 47.64 48.25 48.71 49.43 50.04 51.12 53.49 58.02 59.37 59.00 58.67 57.08 55.73 54.80 52.72 49.58 47.63 45.26 42.45 40.62 39.56 38.56 39.27 39.33 38.74 36.89 37.21 37.07 36.46
MSLP
1017.26 1016.96 1016.67 1016.21 1015.91 1015.13 1014.81 1015.60 1016.15 1016.45 1016.78 1017.36 1017.57 1017.52 1017.37 1018.11 1018.51 1019.48 1020.53 1020.80 1020.83 1021.13 1021.62 1022.14 1022.47 1022.63 1022.78 1022.83 1022.84 1022.86 1022.89 1022.91 1022.88 1022.94 1022.93 1023.00 1023.00 1022.80 1022.89 1023.00 1023.08 1023.17 1023.24 1023.35 1023.53 1023.64 1023.75 1023.78 1023.75
1017.11 1016.79 1016.39 1015.82 1015.29 1014.70 1014.64 1015.60 1016.00 1016.49 1017.27 1017.75 1018.04 1018.22 1018.14 1018.74 1019.79 1020.34 1020.62 1021.19 1021.05 1021.33 1021.54 1022.11 1022.74 1022.87 1022.94 1022.93 1023.06 1023.11 1023.19 1023.13 1023.15 1023.18 1023.25 1023.24 1023.19 1023.13 1023.23 1023.44 1023.59 1023.65 1023.75 1023.82 1023.89 1024.05 1024.20 1024.22 1024.20
1017.15 1016.93 1016.11 1015.62 1015.21 1014.61 1014.87 1015.64 1016.01 1017.19 1017.84 1017.85 1018.13 1018.67 1018.75 1019.42 1020.33 1020.53 1020.69 1020.99 1021.38 1021.55 1021.74 1022.54 1022.95 1023.01 1023.13 1023.20 1023.23 1023.26 1023.36 1023.40 1023.44 1023.50 1023.60 1023.52 1023.43 1023.63 1023.65 1023.85 1024.01 1024.11 1024.22 1024.28 1024.34 1024.39 1024.53 1024.57 1024.54
1017.08 1016.73 1016.63 1015.73 1015.07 1015.36 1015.48 1015.92 1016.46 1017.36 1018.00 1018.23 1018.18 1018.57 1019.57 1020.19 1020.54 1020.80 1021.04 1021.11 1021.27 1021.70 1022.03 1022.91 1023.08 1023.24 1023.33 1023.39 1023.33 1023.44 1023.55 1023.66 1023.72 1023.78 1023.90 1023.97 1023.90 1023.97 1024.11 1024.35 1024.50 1024.67 1024.79 1024.84 1024.86 1024.84 1024.92 1024.92 1024.94
1017.08 1016.64 1015.93 1015.58 1015.40 1015.75 1016.05 1016.42 1016.74 1017.18 1017.59 1017.98 1018.42 1018.80 1019.87 1020.60 1020.80 1021.18 1021.21 1021.26 1021.46 1021.86 1022.24 1022.90 1023.25 1023.42 1023.54 1023.64 1023.59 1023.64 1023.75 1023.89 1024.06 1024.15 1024.25 1024.27 1024.38 1024.54 1024.71 1024.84 1024.97 1025.11 1025.23 1025.26 1025.30 1025.33 1025.37 1025.39 1025.39
1016.98 1016.68 1015.84 1015.35 1015.45 1015.91 1016.23 1016.57 1016.75 1017.20 1017.70 1018.28 1018.38 1018.86 1020.05 1020.91 1021.32 1021.32 1021.30 1021.36 1021.69 1022.03 1022.47 1022.92 1023.60 1023.81 1023.84 1023.98 1024.00 1023.99 1024.06 1024.22 1024.31 1024.50 1024.54 1024.55 1024.74 1024.89 1025.07 1025.27 1025.45 1025.50 1025.58 1025.63 1025.65 1025.69 1025.73 1025.70 1025.72
1016.75 1016.39 1015.69 1015.56 1015.49 1015.89 1016.16 1016.83 1016.77 1016.97 1017.57 1017.95 1018.41 1018.80 1020.49 1021.32 1021.52 1021.59 1021.51 1021.62 1021.96 1022.34 1022.58 1022.93 1023.46 1023.96 1024.22 1024.37 1024.45 1024.44 1024.49 1024.57 1024.62 1024.76 1024.89 1024.89 1025.08 1025.32 1025.45 1025.58 1025.71 1025.80 1025.86 1025.94 1026.02 1026.01 1025.94 1025.94 1025.91
1017.05 1016.52 1015.96 1015.78 1015.66 1015.90 1016.55 1017.06 1017.13 1017.08 1017.60 1018.59 1018.56 1018.62 1019.94 1021.00 1021.73 1021.95 1022.05 1022.26 1022.47 1022.97 1022.78 1023.04 1023.52 1023.87 1024.16 1024.61 1024.93 1025.04 1025.07 1025.06 1025.12 1025.28 1025.46 1025.53 1025.64 1025.76 1025.84 1025.94 1026.05 1026.08 1026.16 1026.21 1026.30 1026.33 1026.31 1026.23 1026.18
1017.29 1016.54 1015.82 1015.79 1016.10 1016.05 1016.83 1017.01 1017.71 1017.99 1017.84 1018.40 1018.93 1018.97 1019.65 1020.80 1021.82 1022.10 1022.48 1022.84 1023.07 1023.35 1023.15 1023.21 1023.70 1024.01 1024.28 1024.60 1025.38 1025.59 1025.75 1025.74 1025.70 1025.76 1025.90 1025.68 1025.57 1025.75 1025.94 1026.51 1026.55 1026.54 1026.52 1026.56 1026.59 1026.58 1026.52 1026.41 1026.32
1016.86 1016.59 1016.35 1016.52 1016.56 1016.50 1016.86 1016.98 1017.49 1017.72 1017.87 1018.17 1018.91 1019.69 1020.17 1021.12 1021.68 1022.08 1022.49 1022.78 1023.13 1023.39 1023.37 1023.32 1024.02 1024.10 1024.52 1025.00 1025.23 1025.34 1025.75 1025.60 1025.66 1025.74 1025.78 1025.78 1025.86 1026.11 1026.31 1026.71 1026.83 1026.84 1026.84 1026.81 1026.76 1026.69 1026.56 1026.19 1025.91
1016.87 1016.58 1016.77 1017.13 1017.08 1017.25 1017.11 1017.25 1017.30 1017.14 1017.22 1016.96 1017.53 1019.00 1020.31 1020.99 1021.66 1021.97 1022.43 1022.77 1023.00 1023.26 1023.55 1023.52 1023.84 1023.97 1024.46 1024.91 1025.14 1025.35 1025.56 1025.78 1025.87 1025.97 1025.95 1026.13 1026.18 1026.31 1026.33 1026.47 1026.47 1026.52 1026.80 1026.39 1026.41 1026.31 1026.27 1026.33 1026.08
1016.90 1017.20 1017.14 1017.42 1017.53 1017.61 1017.31 1017.44 1017.17 1016.94 1016.35 1016.96 1017.30 1018.48 1019.87 1020.57 1021.16 1021.46 1022.10 1022.35 1022.66 1023.21 1023.13 1023.37 1023.58 1023.72 1024.20 1024.69 1024.88 1025.13 1025.51 1025.81 1025.91 1026.05 1026.12 1026.09 1026.23 1026.49 1026.43 1026.33 1026.51 1026.55 1026.52 1026.51 1026.46 1026.35 1026.46 1026.32 1026.25
1016.95 1017.33 1017.22 1017.54 1017.57 1017.89 1017.83 1017.46 1017.01 1016.79 1017.15 1017.40 1017.73 1018.67 1019.53 1020.11 1020.59 1021.21 1021.84 1022.01 1022.54 1023.20 1023.15 1023.13 1023.49 1023.59 1023.90 1024.32 1024.64 1024.98 1025.26 1025.59 1025.73 1025.96 1026.13 1026.04 1026.14 1026.35 1026.38 1026.43 1026.45 1026.50 1026.49 1026.39 1026.36 1026.37 1026.34 1026.24 1026.15
1016.88 1017.33 1017.12 1017.49 1017.68 1018.16 1017.75 1017.49 1017.63 1016.55 1016.96 1017.62 1018.12 1018.54 1019.26 1019.80 1020.03 1020.72 1021.43 1021.57 1022.25 1022.99 1023.36 1023.27 1023.16 1023.46 1023.71 1023.89 1024.31 1024.77 1025.09 1025.33 1025.55 1025.77 1025.96 1026.19 1026.09 1026.22 1026.31 1026.40 1026.40 1026.42 1026.51 1026.57 1026.53 1026.43 1026.24 1026.11 1026.17
1017.52 1017.51 1017.46 1017.39 1017.37 1018.16 1017.84 1017.21 1016.98 1016.89 1017.17 1017.35 1017.91 1018.29 1018.91 1019.58 1019.91 1020.12 1020.29 1020.90 1021.40 1022.31 1022.85 1023.47 1023.56 1023.67 1023.97 1023.79 1024.15 1024.43 1024.82 1025.16 1025.42 1025.63 1025.91 1026.09 1026.18 1026.22 1026.26 1026.30 1026.33 1026.43 1026.57 1026.63 1026.55 1026.44 1026.25 1025.97 1025.93
1017.72 1017.62 1017.19 1017.35 1017.27 1017.86 1017.91 1016.80 1016.63 1016.98 1017.24 1016.82 1017.37 1017.92 1018.53 1019.15 1019.21 1019.68 1019.68 1020.18 1020.82 1021.46 1022.19 1022.97 1023.56 1024.01 1024.36 1023.89 1024.20 1024.42 1024.64 1024.85 1025.09 1025.42 1025.64 1025.92 1026.08 1026.09 1026.23 1026.31 1026.35 1026.48 1026.56 1026.50 1026.51 1026.47 1026.08 1025.96 1025.87
1017.99 1017.28 1017.21 1017.28 1017.30 1017.47 1018.15 1016.93 1016.59 1017.24 1017.42 1016.64 1016.81 1017.33 1017.85 1018.39 1019.01 1018.99 1019.26 1019.53 1020.02 1020.69 1021.62 1022.27 1022.80 1023.18 1023.53 1023.74 1023.95 1024.26 1024.51 1024.59 1024.68 1024.97 1025.18 1025.43 1025.73 1026.15 1026.27 1026.32 1026.29 1026.46 1026.43 1026.50 1026.64 1026.46 1026.69 1026.23 1025.90
1017.33 1017.43 1017.36 1017.12 1017.55 1017.91 1017.78 1017.16 1016.96 1016.41 1017.20 1016.77 1016.70 1016.93 1017.24 1017.57 1018.07 1018.63 1019.02 1019.23 1019.59 1020.20 1020.89 1021.65 1022.30 1022.61 1023.06 1023.48 1023.75 1023.95 1024.32 1024.43 1024.35 1024.49 1024.93 1025.20 1025.55 1025.79 1026.00 1026.16 1026.34 1026.39 1026.73 1026.72 1026.74 1026.74 1026.52 1026.52 1026.29
1016.58 1016.97 1017.04 1017.81 1018.19 1018.23 1017.99 1017.30 1016.79 1016.37 1016.57 1016.41 1016.19 1016.46 1016.58 1016.82 1017.35 1017.95 1018.65 1019.17 1019.32 1019.74 1020.29 1020.84 1021.57 1022.11 1022.51 1022.96 1023.33 1023.57 1023.70 1023.96 1024.05 1024.07 1024.29 1024.52 1024.95 1025.31 1025.57 1025.62 1025.74 1026.07 1026.31 1026.31 1026.56 1026.70 1026.51 1026.45 1026.42
1017.12 1017.49 1017.66 1018.75 1018.97 1019.10 1018.30 1017.29 1016.35 1015.56 1015.51 1015.59 1015.30 1015.33 1015.65 1016.45 1016.74 1017.29 1017.86 1018.39 1018.60 1018.95 1019.54 1020.02 1020.67 1021.26 1021.78 1022.00 1022.36 1022.65 1022.86 1023.10 1023.25 1023.70 1024.04 1024.33 1024.61 1024.91 1025.17 1025.26 1025.43 1025.71 1025.81 1026.06 1026.30 1026.45 1026.51 1026.64 1026.56
1017.57 1017.91 1018.43 1019.15 1019.79 1020.03 1019.56 1017.53 1015.96 1014.55 1014.33 1014.42 1014.66 1014.53 1014.72 1015.32 1015.63 1016.39 1017.02 1017.48 1018.00 1018.20 1018.65 1019.20 1019.66 1020.39 1020.93 1021.27 1021.66 1022.10 1022.37 1022.87 1023.11 1023.30 1023.74 1023.88 1024.12 1024.41 1024.69 1024.87 1025.08 1025.28 1025.39 1025.47 1025.82 1026.14 1026.35 1026.54 1026.63
1018.41 1019.01 1019.31 1019.96 1020.47 1020.63 1020.07 1017.05 1014.29 1013.26 1012.80 1012.89 1013.46 1013.84 1013.80 1014.27 1014.75 1015.13 1015.84 1016.45 1016.86 1017.13 1017.95 1018.52 1018.98 1019.39 1019.95 1020.47 1020.83 1021.07 1021.39 1021.68 1022.15 1022.36 1022.73 1023.08 1023.51 1023.72 1024.08 1024.37 1024.61 1024.72 1024.91 1025.05 1025.55 1025.94 1026.25 1026.46 1026.44
1018.75 1019.64 1020.12 1020.96 1021.31 1021.33 1020.28 1018.83 1013.32 1013.07 1012.01 1011.53 1011.73 1012.30 1012.63 1012.90 1013.47 1013.91 1014.39 1014.95 1015.79 1016.75 1016.71 1017.39 1018.06 1018.55 1019.14 1019.56 1020.06 1020.34 1020.39 1020.79 1021.10 1021.57 1021.98 1022.41 1022.76 1023.17 1023.54 1023.91 1024.15 1024.31 1024.76 1025.08 1025.41 1025.86 1026.07 1026.28 1026.55
1019.55 1020.71 1021.61 1022.40 1022.65 1021.40 1019.43 1018.20 1012.47 1011.80 1011.00 1010.50 1010.64 1011.11 1011.43 1011.82 1012.35 1012.76 1013.40 1014.13 1014.90 1015.82 1016.26 1016.72 1017.05 1017.48 1018.02 1018.50 1018.90 1019.36 1019.72 1020.04 1020.49 1021.09 1021.51 1022.02 1022.48 1022.83 1023.19 1023.69 1024.01 1024.41 1024.91 1025.30 1025.77 1026.01 1025.88 1026.15 1026.69
1019.11 1020.58 1022.28 1022.89 1022.24 1019.27 1018.21 1016.95 1013.11 1011.00 1010.00 1009.55 1009.60 1009.93 1010.28 1010.72 1011.25 1011.98 1012.90 1013.61 1014.02 1014.65 1015.08 1015.60 1016.03 1016.25 1016.97 1017.42 1017.75 1018.22 1018.74 1019.22 1019.52 1020.12 1020.70 1021.33 1022.21 1022.82 1023.08 1023.46 1024.12 1024.59 1024.97 1025.60 1025.93 1026.05 1026.35 1026.73 1027.14
1019.41 1019.34 1019.83 1020.33 1019.77 1018.16 1017.84 1014.44 1011.80 1010.87 1010.20 1009.95 1010.04 1010.07 1010.05 1010.15 1010.65 1011.08 1011.73 1012.46 1012.83 1013.16 1013.84 1014.48 1014.90 1015.08 1015.75 1016.34 1016.62 1017.11 1017.63 1018.11 1018.61 1019.11 1019.70 1020.25 1020.90 1021.69 1022.46 1023.05 1023.75 1024.57 1025.10 1025.74 1026.08 1026.25 1026.78 1027.18 1027.54
1019.97 1019.64 1019.44 1019.41 1019.92 1018.39 1015.89 1013.30 1012.10 1010.66 1010.53 1010.15 1009.86 1009.92 1009.95 1009.95 1010.39 1010.84 1011.31 1011.75 1012.19 1012.60 1012.97 1013.21 1013.73 1014.26 1014.92 1015.29 1015.96 1016.38 1016.91 1017.27 1017.65 1018.40 1019.05 1019.85 1020.41 1021.35 1022.18 1023.01 1023.73 1024.42 1025.09 1025.62 1025.74 1026.36 1027.08 1027.47 1027.93
1018.29 1018.95 1019.37 1019.16 1018.59 1017.04 1013.98 1013.09 1011.40 1010.53 1009.38 1009.35 1009.41 1009.19 1009.35 1009.66 1010.29 1010.67 1011.04 1011.44 1011.98 1012.45 1013.07 1013.40 1013.43 1013.53 1013.90 1014.64 1015.06 1015.56 1016.31 1017.03 1017.52 1018.08 1018.72 1019.59 1020.41 1021.16 1022.06 1023.03 1023.84 1024.50 1024.91 1025.56 1025.85 1026.42 1027.25 1027.65 1028.26
1018.57 1018.36 1018.53 1018.08 1017.62 1016.15 1014.04 1011.21 1010.30 1010.20 1009.63 1009.45 1009.63 1009.84 1009.92 1010.09 1010.16 1010.55 1010.63 1011.49 1012.00 1012.30 1012.59 1012.97 1013.13 1013.18 1013.53 1013.98 1014.64 1015.29 1015.77 1016.70 1017.23 1017.78 1018.44 1019.13 1019.93 1020.79 1021.70 1022.75 1023.61 1024.35 1024.60 1024.94 1025.65 1026.39 1027.01 1027.59 1028.12
1017.69 1017.80 1017.45 1016.79 1016.97 1016.17 1014.68 1010.79 1010.05 1010.17 1010.14 1010.07 1010.09 1009.97 1009.96 1010.42 1010.56 1010.90 1010.77 1010.94 1011.47 1011.71 1011.85 1012.06 1012.60 1013.04 1013.25 1013.73 1014.18 1015.07 1015.42 1016.26 1017.11 1017.63 1018.14 1018.85 1019.60 1020.48 1021.18 1022.29 1023.26 1024.07 1024.25 1024.69 1025.17 1025.95 1026.73 1027.24 1027.83
Wind_Speed
4 5 2 3 4 4 2 3 1 5 6 3 2 2 1 5 2 4 7 7 14 12 14 13 11 13 12 12 12 12 11 12 14 16 16 16 14 14 19 18 17 17 18 18 18 18 17 17 17
5 2 2 0 4 5 2 3 6 5 4 8 6 4 3 4 3 6 12 10 14 12 12 13 11 12 11 11 12 13 13 13 15 16 16 14 13 14 18 19 18 18 17 16 16 16 16 16 16
1 3 2 2 2 5 1 4 7 8 7 4 4 2 1 4 3 11 5 16 14 12 11 13 10 11 11 10 10 14 13 13 15 16 16 15 14 17 16 17 17 17 17 16 15 15 15 15 14
1 3 3 5 4 1 1 2 6 12 3 2 3 6 4 2 8 5 14 16 13 12 11 13 11 11 11 9 11 15 14 14 13 15 15 15 14 14 16 18 17 16 15 15 15 14 13 13 13
1 1 3 4 2 1 3 1 10 12 6 5 3 5 3 6 2 10 14 13 13 12 11 13 10 11 11 10 14 15 14 14 13 15 15 13 14 16 16 17 15 14 14 14 14 14 13 12 12
2 2 5 8 5 3 3 5 11 7 5 6 4 7 6 4 7 12 13 13 12 12 11 12 9 8 9 10 11 14 15 13 13 13 10 15 15 15 15 14 14 13 13 13 13 12 13 12 11
1 3 5 3 4 3 3 8 12 8 7 6 5 6 4 5 8 12 12 11 10 11 11 11 11 10 7 7 9 10 12 12 11 11 12 14 15 15 14 12 12 12 12 12 11 11 11 12 11
2 3 5 3 4 4 6 8 4 8 6 5 4 4 5 10 10 10 10 9 9 9 9 11 11 10 9 9 6 8 10 11 10 11 11 12 13 12 11 11 11 12 10 10 11 10 9 10 10
2 5 7 6 5 2 9 8 2 1 7 3 5 1 1 18 13 12 10 9 8 7 10 10 9 8 8 8 7 8 8 10 10 10 8 6 7 8 9 10 10 10 9 9 9 9 8 4 7
4 8 7 2 2 2 8 8 10 7 6 6 7 5 11 16 13 13 12 11 12 10 9 10 9 9 8 6 8 7 7 6 6 6 6 5 6 6 7 7 8 8 7 7 7 6 2 1 4
5 10 5 3 1 2 3 6 6 7 8 10 13 14 16 14 14 15 14 13 12 12 7 10 10 10 9 7 6 4 4 4 4 6 5 5 4 4 3 3 3 4 1 3 2 2 4 5 4
11 3 4 4 2 1 1 2 6 13 2 3 6 17 20 19 18 17 15 14 15 14 15 12 12 11 10 7 6 6 5 4 4 4 6 4 3 3 3 3 4 3 2 3 2 2 3 3 3
15 9 6 6 7 3 1 5 6 10 5 2 11 17 20 20 20 16 15 14 13 14 15 15 13 12 11 10 7 7 6 5 5 5 5 4 4 4 3 3 3 2 2 2 2 2 2 3 4
12 10 7 5 6 4 3 3 3 2 8 6 13 16 18 20 21 17 15 16 15 14 13 15 16 14 12 10 10 7 6 6 6 5 5 5 4 3 3 3 2 2 1 1 2 3 3 3 3
5 12 6 11 7 4 2 5 8 2 8 9 13 14 16 18 18 20 19 17 17 13 14 12 13 13 11 11 10 8 7 7 5 5 6 6 5 4 3 2 2 1 1 1 1 2 3 3 3
8 7 16 7 9 7 6 14 14 4 9 12 12 12 14 18 20 19 18 17 16 16 17 15 10 9 10 9 8 6 7 6 6 5 5 7 6 5 4 2 2 1 2 2 2 3 4 3 4
4 11 17 11 4 8 8 10 7 2 7 12 12 13 14 15 17 18 18 18 17 16 16 16 16 16 15 12 9 8 8 7 6 6 6 8 7 5 3 2 2 3 3 2 2 2 2 4 4
9 12 7 17 6 8 21 20 15 12 8 12 11 12 14 15 18 17 18 17 16 16 16 15 13 15 13 9 8 6 6 7 7 7 7 9 7 8 6 5 5 4 2 3 2 2 2 3 4
15 15 19 8 5 8 20 22 21 19 10 13 14 14 15 16 15 16 16 16 16 15 16 16 16 15 11 10 9 8 9 8 8 8 10 10 9 9 8 5 6 5 5 4 3 1 3 0 4
10 14 13 6 3 6 12 18 21 23 22 16 16 15 17 14 16 17 18 19 18 18 17 17 17 16 14 11 10 8 9 9 9 9 9 9 10 10 7 8 6 7 5 6 6 4 1 0 3
11 18 15 5 5 1 3 15 24 26 26 24 18 18 14 18 19 17 18 20 19 20 19 18 18 18 16 16 10 9 7 5 7 7 6 9 10 10 9 9 7 6 6 4 5 5 4 2 1
8 4 7 10 5 4 7 10 16 17 23 24 20 18 18 18 19 18 20 21 22 20 17 18 19 19 17 18 14 16 12 11 8 9 8 8 11 11 10 9 8 7 3 4 4 3 3 3 3
4 9 8 4 5 3 6 6 9 10 17 18 25 22 21 20 20 21 22 21 21 18 19 17 19 19 18 18 17 14 15 11 9 9 10 9 9 11 12 9 6 6 3 4 6 6 5 4 3
16 13 13 8 3 7 11 11 16 15 17 15 19 21 22 21 20 21 20 16 18 16 17 15 19 20 21 20 21 20 19 16 11 10 8 6 6 5 6 4 4 5 5 6 5 5 6 5 5
8 11 4 3 5 8 2 14 21 11 17 19 19 19 18 18 18 18 19 18 17 20 20 18 21 22 22 21 21 20 20 20 18 15 10 11 6 3 8 8 7 5 5 5 6 6 7 6 6
7 8 7 11 9 5 2 12 5 13 18 18 14 13 12 15 14 16 19 19 19 21 20 19 20 20 20 20 21 18 20 13 13 15 11 10 10 8 9 8 8 8 7 6 6 6 6 7 6
5 5 4 4 2 1 6 8 11 16 13 11 16 17 16 14 12 14 15 16 17 16 18 21 19 18 19 20 17 18 17 18 15 17 13 10 10 9 10 9 9 9 8 7 9 7 8 7 6
13 14 6 2 6 7 9 8 10 11 13 16 14 16 17 17 11 11 10 11 10 11 12 15 17 19 19 19 16 14 15 14 14 12 14 14 11 12 12 10 9 9 9 9 9 8 8 8 5
8 6 2 1 3 5 5 7 5 8 11 9 7 6 8 11 11 10 9 9 10 10 12 15 16 19 17 15 15 14 12 12 12 10 12 13 12 13 13 12 11 10 11 12 10 9 10 9 8
4 9 9 7 7 5 5 13 5 3 3 3 8 9 8 7 9 8 9 9 11 13 14 13 14 14 14 14 14 10 10 10 10 10 11 12 13 12 14 13 12 10 11 12 12 12 10 10 10
Wind_Direction
329 339 314 245 231 253 182 140 114 157 157 83 98 229 144 23 341 24 136 116 139 139 137 143 124 125 125 121 113 106 102 108 104 101 105 104 102 96 92 89 89 87 84 86 84 80 76 72 67
340 337 234 183 242 235 142 142 180 146 104 128 115 140 167 93 65 107 142 149 141 143 143 135 127 131 131 124 128 119 117 112 105 107 108 106 109 99 97 89 83 89 84 78 81 81 76 73 68
304 355 254 209 231 245 297 180 137 124 127 160 133 5 48 92 114 150 120 149 145 141 141 127 135 134 135 136 132 126 116 113 116 110 107 111 96 92 98 93 86 86 83 79 79 82 79 74 72
292 158 139 241 190 146 61 127 151 148 170 189 158 117 119 327 147 162 149 150 150 146 147 139 141 137 132 126 130 123 121 114 115 114 115 109 103 92 83 90 84 82 82 79 77 79 78 76 72
25 205 191 213 194 150 220 216 176 167 142 155 189 130 81 143 161 150 153 155 152 147 149 151 141 138 135 128 119 120 115 117 118 111 112 110 93 87 86 88 92 90 86 83 79 76 72 70 67
174 270 202 211 191 184 230 189 172 175 152 144 182 138 128 118 155 157 156 155 149 145 154 145 135 130 129 123 117 118 116 119 118 120 111 116 105 97 93 92 93 94 90 84 79 75 69 65 65
192 211 208 208 227 217 183 166 185 171 160 168 126 152 105 173 161 156 158 153 154 147 159 155 148 141 106 108 116 115 118 116 119 111 87 81 100 98 93 91 96 93 88 84 77 72 70 65 64
179 243 188 189 205 218 149 173 204 190 153 114 193 178 165 180 154 150 148 151 146 153 164 155 146 154 151 142 94 92 92 94 86 82 84 83 82 87 89 106 85 91 91 88 80 68 63 61 59
164 216 211 207 194 176 156 183 171 58 136 170 166 138 83 143 144 145 145 154 157 161 157 150 143 146 148 144 113 97 80 82 96 101 90 122 108 106 93 61 69 78 82 81 70 65 64 78 81
174 228 200 35 342 355 181 206 164 180 164 187 176 129 147 146 150 149 165 170 173 173 162 149 137 152 147 140 151 133 137 139 127 134 132 117 113 89 92 84 79 76 75 79 75 60 71 327 42
154 223 157 52 17 304 196 215 181 185 202 203 200 162 169 159 164 166 179 182 181 174 156 157 152 156 159 157 154 154 148 144 144 141 137 123 122 134 122 121 121 103 88 91 97 73 48 40 19
189 198 181 133 44 172 166 143 211 223 241 352 187 162 167 170 179 177 179 189 184 183 177 175 167 164 163 160 172 160 163 166 162 150 147 147 137 134 134 120 113 113 79 88 58 52 29 23 19
219 177 152 145 89 80 97 255 242 239 246 351 156 161 176 181 184 183 190 183 191 191 191 179 174 175 169 172 170 171 173 182 164 165 161 154 146 150 146 127 127 113 118 89 63 30 7 1 357
195 182 165 181 113 71 6 330 255 241 171 160 173 178 181 191 189 180 195 186 191 193 200 192 185 183 179 183 178 176 175 171 175 173 168 170 163 158 152 149 150 149 63 45 16 1 339 337 336
159 183 192 204 178 91 333 252 235 287 186 187 198 192 185 198 191 196 187 191 182 191 193 202 198 191 196 191 182 178 179 180 182 182 175 175 178 172 179 173 177 125 130 243 246 274 292 300 322
193 220 202 168 175 166 350 274 286 221 215 206 202 203 196 202 201 204 191 190 187 186 190 192 191 190 201 207 193 191 182 184 184 186 184 186 187 184 180 186 201 173 220 255 282 297 304 316 331
212 209 216 208 223 179 208 273 281 72 258 246 209 206 208 204 209 207 198 192 186 189 193 193 194 196 201 201 196 201 198 198 191 190 193 188 186 181 181 200 221 207 228 255 273 294 314 305 331
168 194 204 216 184 213 229 246 270 276 253 252 256 226 216 212 214 209 205 198 191 190 192 196 197 200 199 202 203 200 207 212 205 203 197 188 188 186 186 188 197 212 207 229 238 285 294 323 326
199 204 210 214 124 209 228 238 255 260 259 263 243 239 229 218 214 209 208 205 198 196 195 196 196 201 191 193 198 200 205 210 211 209 209 195 191 190 195 203 195 187 207 218 214 254 284 13 332
177 198 206 126 103 220 244 263 256 257 252 253 257 240 230 222 215 211 209 208 204 199 201 198 201 198 200 195 200 206 208 215 211 209 208 200 194 194 198 206 202 203 203 202 195 189 179 238 1
193 205 192 185 136 280 322 270 261 256 248 248 251 249 235 219 219 208 209 212 209 210 204 204 200 203 200 204 198 204 209 212 210 210 199 207 193 194 202 207 208 210 220 205 184 179 185 193 65
184 219 148 134 145 223 188 284 259 249 243 228 238 233 226 219 223 212 209 211 213 211 209 208 206 204 204 202 201 202 203 206 204 205 197 193 202 200 199 203 209 210 197 187 145 161 170 187 193
133 151 130 135 107 9 203 258 261 241 245 236 231 235 228 220 218 211 208 207 210 208 208 206 208 208 204 203 208 209 211 213 209 208 192 188 193 206 207 206 196 182 160 145 158 155 162 184 183
126 88 61 52 73 244 215 213 262 238 238 242 237 228 225 220 218 220 215 202 207 207 208 206 208 209 207 206 207 211 213 211 211 208 190 183 187 163 185 152 147 144 142 153 149 152 157 153 137
128 147 105 180 198 246 335 221 250 261 244 240 235 227 222 222 215 217 209 201 203 204 205 204 207 212 211 209 209 210 215 217 215 213 199 170 166 172 180 164 156 153 140 139 147 152 132 133 133
153 170 168 200 211 224 63 238 245 252 260 259 254 257 249 228 225 214 209 207 206 204 201 200 206 211 207 208 211 208 211 213 214 214 201 195 182 178 160 156 148 144 139 141 149 130 122 126 132
156 187 67 108 45 227 222 276 248 262 256 261 253 247 249 244 227 216 218 218 216 207 205 202 201 207 208 208 211 211 211 213 211 213 207 195 169 151 152 150 149 145 140 149 147 135 133 131 132
184 149 155 124 194 241 237 265 258 287 270 231 242 243 251 253 238 233 230 224 226 223 218 212 209 206 206 208 208 207 206 210 213 203 190 179 163 151 149 147 148 148 142 149 141 138 142 137 136
144 173 93 158 242 243 286 266 204 270 285 308 285 288 277 269 262 254 233 234 229 207 202 210 213 209 206 205 205 203 198 201 203 191 178 177 157 157 151 154 150 157 154 149 148 147 149 148 145
143 163 177 193 186 255 317 254 174 197 336 275 301 297 294 295 310 301 265 223 215 215 205 205 204 205 203 201 199 196 181 172 171 178 171 160 162 161 154 152 153 160 162 154 155 153 160 157 163